SCP
0 0 0 0 0 0 0 0 0 0 0 0 0 0 0 0 0 0 0 0 0 0 0 0 0 -0 -0 0 0 0 0 0 0 0 0 0 0 0 0 0 0 0 0
0 0 0 0 0 0 0 0 -0 0 0 -0 0 0 0 0 0 0 0 0 0 0 0 0 -0 -0 0 0 0 -0 0 0 0 0 0 0 0 0 0 0 0 0 0
0 0 0 0 0 0 0 -0 -0 0 0 -0 -0 0 0 0 0 0 0 0 0 0 0 -0 -0 -0 0 0 0 0 0 0 0 0 0 0 0 0 0 0 0 0 0
0 0 0 -0 -0 0 0 0 0 0 -0 0 -0 -0 0 0 0 0 0 0 -0 -0 -0 -0 -0 -0 0 0 0 0 0 0 0 0 0 0 0 0 0 0 0 0 0
0 0 0 0 0 0 0 0 -0 0 0 0 -0 -0 -0 0 0 0 0 -0 -0 -0 0 -0 -0 0 -0 0 0 0 0 0 0 0 0 0 0 0 0 0 0 0 0
-0 -0 0 -0 -0 -0 -0 0 -0 0 0 0 -0 -0 0 -0 -0 0 0 0 0 -0 0 -0 0 -0 0 0 0 0 0 0 0 0 0 0 0 0 0 0 0 -0 0
0 0 -0 -0 -0 -0 -0 0 -0 0 0 0 0 -0 -0 -0 -0 -0 -0 0 0 0 0 0 0 0 -0 0 0 0 0 0 0 0 0 0 0 0 0 0 0 0 0
-0 -0 -0 -0 -0 -0 -0 -0 -0 0 0 0 0 0 -0 -0 -0 -0 -0 0 0 0 0 0 0 0 0 0 0 0 0 0 0 0 0 0 0 0 0 0 0 0 0
-0 -0 -0 -0 -0 -0 -0 -0 -0 0 0 0 0 -0 0 -0 0 0 0 0 0 -0 0 0 0 0 0 0 0 0 0 0 0 0 0 0 0 0 0 0 0 0 0
-0 -0 -0 -0 -0 -0 -0 -0 -0 0 0 0 0 0 -0 -0 0 -0 0 0 0 0 0 0 0 0 0 0 0 0 0 0 0 0 0 0 0 0 0 0 -0 0 0
-0 -0 -0 -0 -0 -0 -0 0 -0 0 0 0 0 0 0 0 0 0 -0 0 0 -0 0 -0 0 0 0 0 0 0 0 0 0 0 0 0 0 0 0 0 0 0 0
-0 -0 -0 -0 -0 0 -0 -0 -0 0 0 0 0 0 0 0 0 -0 -0 0 0 0 0 0 0 0 -0 -0 -0 0 0 0 0 0 0 0 0 0 0 0 0 0 0
-0 -0 -0 0 0 0 -0 -0 0 0 0 0 0 0 0 0 0 -0 -0 -0 0 0 -0 0 -0 0 0 -0 0 0 0 0 0 0 0 0 0 0 0 0 0 -0 -0
-0 -0 -0 0 0 0 0 0 0 0 0 0 0 0 0 0 0 0 0 0 0 0 0 0 0 0 0 -0 -0 0 0 0 0 -0 -0 -0 0 0 0 0 0 -0 -0
-0 -0 0 0 0 0 0 0 0 0 0 0 0 0 0 0 -0 0 0 0 0 0 0 0 0 0 0 0 0 0 -0 -0 -0 -0 -0 -0 -0 -0 -0 0 -0 -0 -0
-0 0 0 0 0 0 0 0 0 0 0 0 0 0 0 0 0 0 0 0 0 0 0 0 0 0 0 -0 -0 -0 -0 -0 -0 -0 -0 -0 -0 -0 -0 -0 -0 0 0
-0 -0 0 0 0 0 0 0 0 0 0 0 0 0 0 0 0 0 0 0 0 0 0 0 0 -0 -0 -0 -0 -0 -0 -0 -0 -0 -0 -0 -0 -0 -0 -0 -0 -0 -0
0 -0 -0 0 0 0 0 0 0 0 0 0 0 0 0 0 0 0 0 0 0 -0 0 -0 -0 -0 -0 -0 -0 -0 -0 -0 -0 -0 -0 -0 -0 -0 -0 -0 -0 -0 -0
0 0 0 0 0 0 0 0 0 0 0 0 0 0 0 0 -0 0 0 0 0 -0 -0 0 0 0 0 0 -0 -0 -0 0 0 0 0 0 0 0 0 0 -0 -0 0
0 -0 0 0 0 0 0 0 0 -0 0 0 0 0 0 0 0 0 0 0 0 0 0 0 0 0 -0 -0 -0 -0 -0 -0 0 0 0 0 0 -0 -0 0 0 0 0
0 0 0 0 0 0 0 0 0 0 0 0 0 0 -0 -0 -0 -0 -0 -0 0 -0 -0 -0 0 0 0 0 -0 -0 -0 -0 0 0 -0 0 0 0 0 0 0 0 0
-0 0 0 0 0 0 0 0 0 0 0 0 0 0 0 0 0 -0 -0 -0 -0 -0 -0 -0 -0 -0 -0 0 0 0 0 0 -0 0 -0 0 0 0 0 0 0 0 0
0 0 0 0 0 0 0 0 0 0 0 0 0 0 0 0 0 0 0 0 0 0 0 0 0 0 0 0 0 0 0 0 0 0 0 0 0 0 0 0 0 0 0
0 0 0 0 0 0 0 0 0 0 0 0 0 0 0 0 0 0 0 0 0 0 0 0 0 0 0 0 0 0 0 0 0 0 0 0 0 0 0 0 0 0 0
0 0 0 0 0 0 0 0 0 0 0 0 0 0 0 0 0 0 0 0 0 0 0 0 0 0 0 0 0 0 0 0 0 0 0 0 0 0 0 0 0 0 0
0 0 0 0 0 0 0 0 0 0 0 0 0 0 0 0 0 0 0 0 0 0 0 0 0 0 0 0 0 0 0 0 0 0 0 0 0 0 0 0 0 0 0
Wind_Speed_500mb
42 36 32 26 24 21 17 18 17 14 18 19 15 10 1 5 9 12 12 10 18 19 17 14 17 20 22 25 24 26 34 37 28 28 17 21 26 17 28 47 54 45 43
36 30 27 21 15 15 15 13 19 23 23 18 9 1 5 12 12 11 14 25 23 23 24 20 17 20 20 24 24 25 35 37 26 35 31 29 36 31 48 55 59 50 67
35 32 27 20 14 11 12 14 23 25 24 11 3 4 5 13 16 12 19 19 27 23 19 21 22 23 26 25 29 28 36 36 30 41 41 41 45 59 58 50 75 73 67
38 33 22 16 14 10 15 15 23 26 19 5 4 5 11 15 16 16 15 10 13 27 23 24 23 22 18 21 30 35 41 39 42 48 44 43 56 59 59 67 82 81 68
39 32 20 13 15 14 20 14 34 29 15 9 4 5 7 14 15 15 14 8 11 20 14 18 18 15 12 12 13 35 44 48 51 52 57 63 64 79 86 81 80 71 66
38 36 17 12 13 22 28 29 28 22 14 10 7 3 10 15 18 13 12 11 12 10 10 22 22 18 20 18 18 29 41 50 57 65 62 72 79 86 81 90 87 79 69
36 30 15 16 19 23 27 29 27 21 14 10 8 2 10 17 16 12 9 9 12 11 15 21 28 28 23 21 24 32 35 42 54 58 63 74 88 85 91 79 75 68 65
34 27 22 14 18 29 28 26 26 17 15 11 9 6 10 16 11 8 9 13 15 11 12 13 21 21 20 28 38 43 46 47 44 55 58 76 80 80 65 58 65 56 59
34 28 24 20 30 30 25 27 21 18 16 14 10 8 10 9 6 5 9 12 13 18 17 14 13 22 26 35 53 57 53 49 48 56 68 74 77 60 57 63 58 65 63
34 29 22 22 29 29 22 24 19 17 17 17 15 11 7 2 3 6 10 9 19 23 23 21 27 32 33 36 45 57 55 61 58 59 70 68 56 54 43 38 57 62 57
33 23 23 27 29 27 18 17 14 14 18 18 16 13 8 7 7 9 13 9 14 26 30 32 34 37 39 37 39 44 52 48 54 67 69 55 52 50 39 41 44 38 38
34 26 24 30 29 25 17 15 12 11 13 17 18 16 10 11 12 12 13 13 11 26 36 38 41 38 36 44 49 52 54 56 70 59 54 54 54 43 42 41 35 30 27
41 36 28 29 25 23 18 13 16 13 11 12 18 17 15 15 18 18 18 17 13 27 37 42 43 41 39 42 43 51 48 54 58 55 51 49 46 49 45 42 39 35 37
38 41 34 27 28 24 15 16 13 12 12 10 14 17 22 18 22 23 23 22 22 32 41 44 44 46 41 38 42 43 45 48 51 53 50 47 53 51 41 38 36 33 31
37 43 38 31 30 20 15 17 14 9 4 2 6 11 17 22 22 20 20 25 29 36 46 47 43 45 49 45 42 44 44 44 46 48 53 55 54 47 40 35 34 32 31
39 50 42 38 30 20 14 24 18 11 6 4 2 2 11 15 19 19 19 27 30 35 45 48 47 46 49 51 46 49 49 44 45 50 55 48 43 40 39 39 38 38 35
40 53 48 45 34 26 19 24 21 17 10 8 7 4 9 15 21 22 24 29 33 31 33 41 46 48 46 49 51 52 56 51 47 49 49 46 42 39 39 41 44 44 44
41 47 47 47 40 30 22 22 22 19 11 11 17 13 11 16 23 25 29 35 40 37 32 31 31 34 39 45 51 49 51 59 58 50 47 44 42 41 43 46 49 53 52
47 46 51 46 42 36 28 25 26 22 16 15 15 18 18 16 28 31 33 36 42 43 41 37 32 33 35 39 45 47 48 52 53 53 52 50 48 47 47 47 48 49 51
51 47 43 51 49 45 39 33 29 29 27 24 20 20 24 27 28 40 42 43 43 43 43 41 39 38 39 43 46 49 52 53 55 55 52 49 47 48 50 52 54 55 56
58 54 49 46 57 49 43 39 34 33 32 31 28 25 25 27 27 29 34 44 47 48 47 45 43 42 41 42 45 52 56 58 59 59 57 55 53 56 54 55 55 55 59
59 59 57 55 51 57 52 45 38 36 39 40 36 36 37 39 39 38 37 39 42 45 49 52 52 51 50 51 51 53 59 62 64 63 62 61 61 62 64 64 66 67 70
56 58 62 63 59 57 57 52 46 43 42 44 45 46 48 49 50 48 46 43 44 48 51 54 57 60 62 63 64 65 68 70 69 68 69 69 70 72 73 75 75 77 79
24 45 48 52 63 70 66 61 56 51 51 51 51 53 54 55 56 53 50 51 52 50 50 56 61 64 66 69 73 76 77 76 75 74 73 74 77 77 79 81 82 83 83
22 16 15 30 43 49 61 66 65 65 62 57 59 61 59 60 62 64 62 59 58 59 60 58 56 57 61 68 75 79 82 85 88 89 88 87 89 87 85 83 83 81 80
13 20 24 23 15 18 37 46 52 56 61 66 70 72 69 67 66 69 70 70 68 64 60 61 62 61 57 58 60 64 66 69 76 83 87 90 90 92 93 93 93 92 89
Wind_Direction_500mb
166 166 165 164 164 174 188 211 216 190 165 159 150 147 77 321 295 282 272 243 232 218 222 237 229 217 216 214 216 216 210 214 213 170 170 168 175 173 156 171 158 166 166
162 164 165 164 142 175 180 185 184 166 160 154 147 208 309 323 307 291 263 248 224 218 226 230 214 214 221 229 231 220 212 208 214 171 168 163 174 183 161 172 160 157 170
157 152 148 156 173 177 181 164 161 163 160 150 119 320 313 327 321 307 299 250 227 209 215 223 217 218 231 232 227 216 192 195 190 166 156 170 173 174 161 169 162 162 162
159 157 159 180 199 199 175 172 177 165 151 185 231 255 323 336 337 329 313 265 204 213 228 221 224 232 232 240 227 202 195 193 169 161 158 158 164 166 178 160 142 140 140
161 170 178 185 196 193 166 165 160 155 162 179 192 307 355 356 346 348 6 92 164 189 204 213 202 196 205 217 203 181 185 169 167 162 155 159 161 152 146 143 140 142 143
178 181 172 212 209 179 166 153 160 162 171 184 189 2 7 351 355 10 39 97 132 159 175 169 175 185 165 141 161 170 170 173 162 149 160 160 158 157 152 150 145 147 145
192 188 187 184 168 175 181 177 176 171 188 195 207 302 346 347 358 14 56 118 124 110 125 153 167 168 169 159 146 159 168 169 170 170 164 166 161 158 152 150 153 157 158
188 190 181 174 169 166 161 172 173 184 179 195 229 267 327 343 356 27 86 121 131 126 139 149 152 153 155 168 160 160 160 163 168 173 171 162 156 152 153 152 159 160 156
181 192 189 176 170 169 183 185 184 191 206 217 233 264 315 337 8 58 115 120 129 127 127 135 146 145 155 172 160 165 159 159 170 179 164 156 155 158 162 162 166 160 159
188 196 184 181 176 174 183 192 203 210 220 232 244 257 281 271 102 96 123 112 126 124 121 113 121 134 137 145 160 160 157 165 169 168 162 160 167 165 172 175 162 167 166
193 173 176 177 171 171 183 203 211 229 224 224 228 231 244 178 144 131 128 120 143 137 132 127 125 128 132 135 149 167 160 162 159 160 159 164 164 165 170 174 174 174 175
187 175 165 168 176 184 191 194 196 196 213 213 214 210 198 176 156 152 138 126 141 150 141 135 132 128 136 135 130 140 145 152 153 155 161 168 174 178 174 174 179 187 182
195 182 172 175 182 198 204 207 187 197 196 198 195 200 194 175 161 152 144 136 134 157 144 139 138 138 136 148 139 154 151 155 170 174 167 166 164 159 166 177 182 181 195
198 190 182 182 194 203 212 185 198 193 190 196 187 185 180 181 172 166 161 153 149 157 151 146 153 152 149 156 164 165 167 167 168 171 170 167 168 172 177 182 186 191 201
201 195 192 192 196 191 187 180 172 166 177 96 160 182 191 180 168 161 165 163 161 162 158 155 157 163 166 165 170 175 179 178 179 178 176 175 179 186 189 192 196 202 217
203 198 198 197 196 190 188 178 176 172 163 189 134 127 160 172 169 159 159 167 163 169 169 168 171 174 177 181 177 175 178 180 180 178 177 181 186 196 203 213 220 224 231
207 202 201 201 200 189 180 192 192 179 194 244 206 184 164 185 168 162 158 167 171 169 174 179 183 183 183 186 185 187 191 187 179 185 195 204 210 216 223 229 232 236 243
213 211 207 205 208 202 194 195 187 196 220 204 182 183 172 184 183 174 171 176 180 183 184 175 170 178 185 186 190 191 190 194 198 201 205 210 216 222 229 233 237 241 246
220 216 217 215 216 215 208 204 206 208 216 211 194 193 195 190 191 191 195 196 190 191 195 198 197 196 193 193 197 199 198 200 204 210 214 217 221 226 232 238 244 249 255
224 226 228 224 223 220 217 217 219 220 221 223 223 212 207 204 204 204 206 209 208 208 209 211 215 218 216 213 209 210 212 213 213 214 215 219 226 235 244 251 255 258 260
226 226 228 232 231 229 227 226 225 231 235 236 238 239 241 246 240 230 226 224 222 221 222 226 225 224 224 224 223 221 219 218 218 222 228 235 242 250 255 259 262 266 269
229 227 229 232 233 233 233 232 230 234 244 247 247 250 248 247 252 255 253 247 243 241 239 238 239 237 235 231 229 228 228 230 234 238 244 250 256 259 261 263 266 267 267
232 234 232 234 237 237 237 237 238 238 242 249 250 252 253 253 254 255 256 258 255 251 248 245 244 244 242 241 241 241 241 240 240 242 246 251 255 260 262 264 266 268 269
219 231 236 243 243 240 239 241 241 244 247 249 254 257 256 255 257 262 264 263 259 257 254 252 250 249 249 248 246 246 247 248 249 250 252 256 261 265 268 269 270 271 273
114 127 179 232 239 244 248 248 249 251 253 257 259 259 261 262 261 261 263 264 264 264 262 259 257 255 254 254 253 253 254 254 254 254 254 254 257 260 262 265 267 269 272
80 91 100 95 103 216 238 244 249 254 257 259 262 264 266 268 269 267 266 265 265 266 266 266 264 260 258 257 258 259 260 259 257 255 255 256 257 258 258 260 263 265 268
Wind_Speed_850mb
42 36 32 26 24 21 17 18 17 14 18 19 15 10 1 5 9 12 12 10 18 19 17 14 17 20 22 25 24 26 34 37 28 28 17 21 26 17 28 47 54 45 43
36 30 27 21 15 15 15 13 19 23 23 18 9 1 5 12 12 11 14 25 23 23 24 20 17 20 20 24 24 25 35 37 26 35 31 29 36 31 48 55 59 50 67
35 32 27 20 14 11 12 14 23 25 24 11 3 4 5 13 16 12 19 19 27 23 19 21 22 23 26 25 29 28 36 36 30 41 41 41 45 59 58 50 75 73 67
38 33 22 16 14 10 15 15 23 26 19 5 4 5 11 15 16 16 15 10 13 27 23 24 23 22 18 21 30 35 41 39 42 48 44 43 56 59 59 67 82 81 68
39 32 20 13 15 14 20 14 34 29 15 9 4 5 7 14 15 15 14 8 11 20 14 18 18 15 12 12 13 35 44 48 51 52 57 63 64 79 86 81 80 71 66
38 36 17 12 13 22 28 29 28 22 14 10 7 3 10 15 18 13 12 11 12 10 10 22 22 18 20 18 18 29 41 50 57 65 62 72 79 86 81 90 87 79 69
36 30 15 16 19 23 27 29 27 21 14 10 8 2 10 17 16 12 9 9 12 11 15 21 28 28 23 21 24 32 35 42 54 58 63 74 88 85 91 79 75 68 65
34 27 22 14 18 29 28 26 26 17 15 11 9 6 10 16 11 8 9 13 15 11 12 13 21 21 20 28 38 43 46 47 44 55 58 76 80 80 65 58 65 56 59
34 28 24 20 30 30 25 27 21 18 16 14 10 8 10 9 6 5 9 12 13 18 17 14 13 22 26 35 53 57 53 49 48 56 68 74 77 60 57 63 58 65 63
34 29 22 22 29 29 22 24 19 17 17 17 15 11 7 2 3 6 10 9 19 23 23 21 27 32 33 36 45 57 55 61 58 59 70 68 56 54 43 38 57 62 57
33 23 23 27 29 27 18 17 14 14 18 18 16 13 8 7 7 9 13 9 14 26 30 32 34 37 39 37 39 44 52 48 54 67 69 55 52 50 39 41 44 38 38
34 26 24 30 29 25 17 15 12 11 13 17 18 16 10 11 12 12 13 13 11 26 36 38 41 38 36 44 49 52 54 56 70 59 54 54 54 43 42 41 35 30 27
41 36 28 29 25 23 18 13 16 13 11 12 18 17 15 15 18 18 18 17 13 27 37 42 43 41 39 42 43 51 48 54 58 55 51 49 46 49 45 42 39 35 37
38 41 34 27 28 24 15 16 13 12 12 10 14 17 22 18 22 23 23 22 22 32 41 44 44 46 41 38 42 43 45 48 51 53 50 47 53 51 41 38 36 33 31
37 43 38 31 30 20 15 17 14 9 4 2 6 11 17 22 22 20 20 25 29 36 46 47 43 45 49 45 42 44 44 44 46 48 53 55 54 47 40 35 34 32 31
39 50 42 38 30 20 14 24 18 11 6 4 2 2 11 15 19 19 19 27 30 35 45 48 47 46 49 51 46 49 49 44 45 50 55 48 43 40 39 39 38 38 35
40 53 48 45 34 26 19 24 21 17 10 8 7 4 9 15 21 22 24 29 33 31 33 41 46 48 46 49 51 52 56 51 47 49 49 46 42 39 39 41 44 44 44
41 47 47 47 40 30 22 22 22 19 11 11 17 13 11 16 23 25 29 35 40 37 32 31 31 34 39 45 51 49 51 59 58 50 47 44 42 41 43 46 49 53 52
47 46 51 46 42 36 28 25 26 22 16 15 15 18 18 16 28 31 33 36 42 43 41 37 32 33 35 39 45 47 48 52 53 53 52 50 48 47 47 47 48 49 51
51 47 43 51 49 45 39 33 29 29 27 24 20 20 24 27 28 40 42 43 43 43 43 41 39 38 39 43 46 49 52 53 55 55 52 49 47 48 50 52 54 55 56
58 54 49 46 57 49 43 39 34 33 32 31 28 25 25 27 27 29 34 44 47 48 47 45 43 42 41 42 45 52 56 58 59 59 57 55 53 56 54 55 55 55 59
59 59 57 55 51 57 52 45 38 36 39 40 36 36 37 39 39 38 37 39 42 45 49 52 52 51 50 51 51 53 59 62 64 63 62 61 61 62 64 64 66 67 70
56 58 62 63 59 57 57 52 46 43 42 44 45 46 48 49 50 48 46 43 44 48 51 54 57 60 62 63 64 65 68 70 69 68 69 69 70 72 73 75 75 77 79
24 45 48 52 63 70 66 61 56 51 51 51 51 53 54 55 56 53 50 51 52 50 50 56 61 64 66 69 73 76 77 76 75 74 73 74 77 77 79 81 82 83 83
22 16 15 30 43 49 61 66 65 65 62 57 59 61 59 60 62 64 62 59 58 59 60 58 56 57 61 68 75 79 82 85 88 89 88 87 89 87 85 83 83 81 80
13 20 24 23 15 18 37 46 52 56 61 66 70 72 69 67 66 69 70 70 68 64 60 61 62 61 57 58 60 64 66 69 76 83 87 90 90 92 93 93 93 92 89
Wind_Direction_850mb
166 166 165 164 164 174 188 211 216 190 165 159 150 147 77 321 295 282 272 243 232 218 222 237 229 217 216 214 216 216 210 214 213 170 170 168 175 173 156 171 158 166 166
162 164 165 164 142 175 180 185 184 166 160 154 147 208 309 323 307 291 263 248 224 218 226 230 214 214 221 229 231 220 212 208 214 171 168 163 174 183 161 172 160 157 170
157 152 148 156 173 177 181 164 161 163 160 150 119 320 313 327 321 307 299 250 227 209 215 223 217 218 231 232 227 216 192 195 190 166 156 170 173 174 161 169 162 162 162
159 157 159 180 199 199 175 172 177 165 151 185 231 255 323 336 337 329 313 265 204 213 228 221 224 232 232 240 227 202 195 193 169 161 158 158 164 166 178 160 142 140 140
161 170 178 185 196 193 166 165 160 155 162 179 192 307 355 356 346 348 6 92 164 189 204 213 202 196 205 217 203 181 185 169 167 162 155 159 161 152 146 143 140 142 143
178 181 172 212 209 179 166 153 160 162 171 184 189 2 7 351 355 10 39 97 132 159 175 169 175 185 165 141 161 170 170 173 162 149 160 160 158 157 152 150 145 147 145
192 188 187 184 168 175 181 177 176 171 188 195 207 302 346 347 358 14 56 118 124 110 125 153 167 168 169 159 146 159 168 169 170 170 164 166 161 158 152 150 153 157 158
188 190 181 174 169 166 161 172 173 184 179 195 229 267 327 343 356 27 86 121 131 126 139 149 152 153 155 168 160 160 160 163 168 173 171 162 156 152 153 152 159 160 156
181 192 189 176 170 169 183 185 184 191 206 217 233 264 315 337 8 58 115 120 129 127 127 135 146 145 155 172 160 165 159 159 170 179 164 156 155 158 162 162 166 160 159
188 196 184 181 176 174 183 192 203 210 220 232 244 257 281 271 102 96 123 112 126 124 121 113 121 134 137 145 160 160 157 165 169 168 162 160 167 165 172 175 162 167 166
193 173 176 177 171 171 183 203 211 229 224 224 228 231 244 178 144 131 128 120 143 137 132 127 125 128 132 135 149 167 160 162 159 160 159 164 164 165 170 174 174 174 175
187 175 165 168 176 184 191 194 196 196 213 213 214 210 198 176 156 152 138 126 141 150 141 135 132 128 136 135 130 140 145 152 153 155 161 168 174 178 174 174 179 187 182
195 182 172 175 182 198 204 207 187 197 196 198 195 200 194 175 161 152 144 136 134 157 144 139 138 138 136 148 139 154 151 155 170 174 167 166 164 159 166 177 182 181 195
198 190 182 182 194 203 212 185 198 193 190 196 187 185 180 181 172 166 161 153 149 157 151 146 153 152 149 156 164 165 167 167 168 171 170 167 168 172 177 182 186 191 201
201 195 192 192 196 191 187 180 172 166 177 96 160 182 191 180 168 161 165 163 161 162 158 155 157 163 166 165 170 175 179 178 179 178 176 175 179 186 189 192 196 202 217
203 198 198 197 196 190 188 178 176 172 163 189 134 127 160 172 169 159 159 167 163 169 169 168 171 174 177 181 177 175 178 180 180 178 177 181 186 196 203 213 220 224 231
207 202 201 201 200 189 180 192 192 179 194 244 206 184 164 185 168 162 158 167 171 169 174 179 183 183 183 186 185 187 191 187 179 185 195 204 210 216 223 229 232 236 243
213 211 207 205 208 202 194 195 187 196 220 204 182 183 172 184 183 174 171 176 180 183 184 175 170 178 185 186 190 191 190 194 198 201 205 210 216 222 229 233 237 241 246
220 216 217 215 216 215 208 204 206 208 216 211 194 193 195 190 191 191 195 196 190 191 195 198 197 196 193 193 197 199 198 200 204 210 214 217 221 226 232 238 244 249 255
224 226 228 224 223 220 217 217 219 220 221 223 223 212 207 204 204 204 206 209 208 208 209 211 215 218 216 213 209 210 212 213 213 214 215 219 226 235 244 251 255 258 260
226 226 228 232 231 229 227 226 225 231 235 236 238 239 241 246 240 230 226 224 222 221 222 226 225 224 224 224 223 221 219 218 218 222 228 235 242 250 255 259 262 266 269
229 227 229 232 233 233 233 232 230 234 244 247 247 250 248 247 252 255 253 247 243 241 239 238 239 237 235 231 229 228 228 230 234 238 244 250 256 259 261 263 266 267 267
232 234 232 234 237 237 237 237 238 238 242 249 250 252 253 253 254 255 256 258 255 251 248 245 244 244 242 241 241 241 241 240 240 242 246 251 255 260 262 264 266 268 269
219 231 236 243 243 240 239 241 241 244 247 249 254 257 256 255 257 262 264 263 259 257 254 252 250 249 249 248 246 246 247 248 249 250 252 256 261 265 268 269 270 271 273
114 127 179 232 239 244 248 248 249 251 253 257 259 259 261 262 261 261 263 264 264 264 262 259 257 255 254 254 253 253 254 254 254 254 254 254 257 260 262 265 267 269 272
80 91 100 95 103 216 238 244 249 254 257 259 262 264 266 268 269 267 266 265 265 266 266 266 264 260 258 257 258 259 260 259 257 255 255 256 257 258 258 260 263 265 268